Location: *
(28.2408°N, 53.4600°E)
Time: 07:37:47
(UTC+00:00)

Cosmos 2219 Rocket - Pass Details

Date: 22 September 2019
Orbit: 829 x 845 km, 71.0° (Epoch: 19 October)

Event Time Altitude Azimuth Distance (km) Brightness Sun altitude
Rises 15:54:02 0° 331° (NNW) 3,374 5.9 -20.7°
Reaches altitude 10° 15:56:34 10° 325° (NW) 2,439 5.2 -21.2°
Maximum altitude 16:01:47 42° 256° (WSW) 1,174 3.3 -22.3°
Drops below altitude 10° 16:07:01 10° 186° (S) 2,438 4.5 -23.5°
Sets 16:09:34 0° 180° (S) 3,372 5.2 -24.0°
Enters shadow 16:09:38 - 179° (S) 3,397 5.2 -24.0°
